Weather History for Hamilton, OH

Change the Weather History Date:

Tuesday, September 10, 2013

  Actual Average (KCVG) Record (KCVG)
Temperature  
Mean Temperature 84 °F 70 °F  
Max Temperature 96 °F 81 °F 98 °F (1964)
Min Temperature 73 °F 59 °F 42 °F (1924)
Degree Days  
Heating Degree Days 0 1  
Month to date heating degree days 4  
Since 1 July heating degree days 4  
Cooling Degree Days 19 6  
Month to date cooling degree days 70  
Year to date cooling degree days 1038  
Growing Degree Days 34 (Base 50)    
Moisture  
Dew Point 71 °F    
Average Humidity 70    
Maximum Humidity 93    
Minimum Humidity 47    
Precipitation  
Precipitation 0.00 in 0.09 in 1.34 in (1911)
Month to date precipitation 0.87  
Year to date precipitation 30.66  
Snow  
Snow 0.00 in 0.00 in 0.00 in ()
Month to date snowfall 0.0  
Since 1 July snowfall 0.0  
Since 1 September snowfall 0.0  
Snow Depth -    
Sea Level Pressure  
Sea Level Pressure 30.09 in    
Wind  
Wind Speed 2 mph (WSW)    
Max Wind Speed 10 mph    
Max Gust Speed -    
Visibility 8 miles    
Events Thunderstorm    
T = Trace of Precipitation, MM = Missing Value Source: NWS Daily Summary

Daily Weather History Graph

Daily Weather History Graph

Search for Another Location

Airport:

Trip Planner

Search our weather history database for the weather conditions in past years. The results will help you decide how hot, cold, wet, or windy it might be!

Date:

Astronomy

Sep. 10, 2013 Rise Set
Actual Time 7:14 AM EDT 7:54 PM EDT
Civil Twilight 6:47 AM EDT 8:21 PM EDT
Nautical Twilight 6:15 AM EDT 8:53 PM EDT
Astronomical Twilight 5:42 AM EDT 9:25 PM EDT
Moon 12:37 PM EDT (9/10) 10:58 PM EDT (9/10)
Length of Visible Light 13h 33m
Length of Day
12h 39m
Waxing Crescent, 28% of the Moon is Illuminated
Sep 10
Waxing Crescent
Sep 12
First Quarter
Sep 19
Full
Sep 26
Last Quarter
Oct 4
New

Hourly Weather History & Observations

Time (EDT) Temp. Heat Index Dew Point Humidity Pressure Visibility Wind Dir Wind Speed Gust Speed Precip Events Conditions
12:53 AM 75.9 °F - 70.0 °F 82% 30.03 in 10.0 mi Calm Calm - N/A   Clear
1:53 AM 77.0 °F - 70.0 °F 79% 30.03 in 9.0 mi Calm Calm - N/A   Clear
2:53 AM 73.9 °F - 70.0 °F 87% 30.04 in 7.0 mi Calm Calm - N/A   Partly Cloudy
3:53 AM 73.9 °F - 70.0 °F 87% 30.04 in 7.0 mi Calm Calm - N/A   Mostly Cloudy
4:53 AM 73.0 °F - 70.0 °F 90% 30.06 in 6.0 mi Calm Calm - N/A   Overcast
5:53 AM 73.9 °F - 71.1 °F 91% 30.07 in 6.0 mi Calm Calm - N/A   Overcast
6:53 AM 73.0 °F - 71.1 °F 93% 30.09 in 6.0 mi Calm Calm - N/A   Partly Cloudy
7:53 AM 73.9 °F - 71.1 °F 91% 30.11 in 5.0 mi Calm Calm - N/A   Scattered Clouds
8:53 AM 80.1 °F 83.8 °F 72.0 °F 76% 30.12 in 6.0 mi Variable 3.5 mph - N/A   Haze
9:53 AM 82.9 °F 88.0 °F 72.0 °F 69% 30.13 in 7.0 mi Variable 4.6 mph - N/A   Scattered Clouds
10:53 AM 84.9 °F 90.7 °F 72.0 °F 65% 30.12 in 8.0 mi WSW 5.8 mph - N/A   Clear
11:53 AM 90.0 °F 99.0 °F 73.9 °F 59% 30.12 in 8.0 mi Variable 5.8 mph - N/A   Clear
12:53 PM 91.9 °F 100.7 °F 73.0 °F 54% 30.11 in 9.0 mi Variable 6.9 mph - N/A   Clear
1:53 PM 93.9 °F 104.0 °F 73.9 °F 52% 30.11 in 8.0 mi SW 10.4 mph - N/A   Clear
2:53 PM 95.0 °F 103.2 °F 72.0 °F 47% 30.09 in 9.0 mi Variable 6.9 mph - N/A   Partly Cloudy
3:53 PM 93.9 °F 103.4 °F 73.0 °F 51% 30.07 in 8.0 mi Variable 6.9 mph - N/A   Partly Cloudy
4:38 PM 93.2 °F 102.4 °F 73.4 °F 52% 30.09 in 8.0 mi Variable 4.6 mph - N/A Thunderstorm Partly Cloudy
4:53 PM 95.0 °F 104.5 °F 73.0 °F 49% 30.07 in 9.0 mi SW 8.1 mph - N/A Thunderstorm Mostly Cloudy
5:33 PM 89.6 °F 96.2 °F 71.6 °F 55% 30.08 in 8.0 mi SW 4.6 mph - N/A   Scattered Clouds
5:43 PM 89.6 °F 96.2 °F 71.6 °F 55% 30.08 in 8.0 mi SW 5.8 mph - N/A Thunderstorm Partly Cloudy
5:53 PM 89.1 °F 96.0 °F 72.0 °F 57% 30.07 in 8.0 mi Variable 3.5 mph - N/A Thunderstorm Clear
6:18 PM 86.0 °F 91.8 °F 71.6 °F 62% 30.09 in 10.0 mi West 5.8 mph - N/A   Clear
6:53 PM 84.9 °F 90.1 °F 71.1 °F 63% 30.08 in 9.0 mi Variable 3.5 mph - N/A   Partly Cloudy
7:53 PM 82.9 °F 87.0 °F 70.0 °F 65% 30.10 in 10.0 mi Variable 3.5 mph - N/A   Partly Cloudy
8:53 PM 79.0 °F - 71.1 °F 77% 30.12 in 10.0 mi Calm Calm - N/A   Clear
9:53 PM 77.0 °F - 70.0 °F 79% 30.13 in 10.0 mi Calm Calm - N/A   Clear
10:53 PM 75.9 °F - 69.1 °F 79% 30.14 in 10.0 mi West 3.5 mph - N/A   Clear
11:53 PM 73.9 °F - 69.1 °F 85% 30.14 in 10.0 mi Calm Calm - N/A   Clear